Weather History for Du Bois, PA

Change the Weather History Date:

Wednesday, October 3, 2012

  Actual Average Record
Temperature  
Mean Temperature 67 °F 53 °F  
Max Temperature 74 °F 63 °F 80 °F (2005)
Min Temperature 60 °F 43 °F 26 °F (1974)
Degree Days  
Heating Degree Days 0 12  
Month to date heating degree days 17 35  
Since 1 July heating degree days 240 281  
Cooling Degree Days 2 0  
Month to date cooling degree days 2 0  
Year to date cooling degree days 547 360  
Growing Degree Days 16 (Base 50)    
Moisture  
Dew Point 60 °F    
Average Humidity 81    
Maximum Humidity 100    
Minimum Humidity 61    
Precipitation  
Precipitation 0.00 in 0.10 in 3.20 in (1998)
Month to date precipitation 0.04 0.31  
Sea Level Pressure  
Sea Level Pressure 30.04 in    
Wind  
Wind Speed 6 mph (SSW)    
Max Wind Speed 15 mph    
Max Gust Speed 20 mph    
Visibility 8 miles    
Events      
T = Trace of Precipitation, MM = Missing Value Source: NWS Daily Summary

Daily Weather History Graph

Daily Weather History Graph

Search for Another Location

Airport:

Trip Planner

Search our weather history database for the weather conditions in past years. The results will help you decide how hot, cold, wet, or windy it might be!

Date:

Astronomy

Oct. 03, 2012 Rise Set
Actual Time 7:14 AM EDT 6:53 PM EDT
Civil Twilight 6:47 AM EDT 7:20 PM EDT
Nautical Twilight 6:15 AM EDT 7:52 PM EDT
Astronomical Twilight 5:43 AM EDT 8:24 PM EDT
Moon 8:42 PM EDT (10/3) 10:38 AM EDT (10/3)
Length of Visible Light 12h 33m
Length of Day
11h 38m
Waning Gibbous, 89% of the Moon is Illuminated
Oct 3
Waning Gibbous
Oct 8
Last Quarter
Oct 15
New
Oct 21
First Quarter
Oct 29
Full

Hourly Weather History & Observations

Time (EDT) Temp. Dew Point Humidity Pressure Visibility Wind Dir Wind Speed Gust Speed Precip Events Conditions
12:22 AM 60.8 °F 60.8 °F 100% 29.95 in 3.0 mi ESE 6.9 mph - N/A   Overcast
12:56 AM 61.0 °F 60.1 °F 97% 29.93 in 6.0 mi ESE 5.8 mph - N/A   Overcast
1:56 AM 61.0 °F 60.1 °F 97% 29.93 in 6.0 mi ESE 6.9 mph - N/A   Overcast
2:56 AM 61.0 °F 60.1 °F 97% 29.94 in 8.0 mi ESE 6.9 mph - N/A   Overcast
3:56 AM 61.0 °F 59.0 °F 93% 29.95 in 4.0 mi East 4.6 mph - N/A   Overcast
4:11 AM 60.8 °F 59.0 °F 94% 29.97 in 2.5 mi East 5.8 mph - N/A   Overcast
4:21 AM 60.8 °F 59.0 °F 94% 29.97 in 1.0 mi ESE 4.6 mph - N/A   Overcast
4:28 AM 60.8 °F 59.0 °F 94% 29.98 in 1.2 mi East 3.5 mph - N/A   Overcast
4:34 AM 60.8 °F 59.0 °F 94% 29.98 in 3.0 mi East 4.6 mph - N/A   Overcast
4:56 AM 61.0 °F 60.1 °F 97% 29.96 in 3.0 mi Calm Calm - N/A   Overcast
5:56 AM 62.1 °F 60.1 °F 93% 29.97 in 6.0 mi East 4.6 mph - N/A   Overcast
6:23 AM 60.8 °F 59.0 °F 94% 30.00 in 7.0 mi Calm Calm - N/A   Scattered Clouds
6:38 AM 60.8 °F 60.8 °F 100% 30.01 in 9.0 mi Calm Calm - N/A   Mostly Cloudy
7:09 AM 62.6 °F 60.8 °F 94% 30.02 in 10.0 mi Calm Calm - N/A   Overcast
7:51 AM 62.6 °F 60.8 °F 94% 30.03 in 10.0 mi Calm Calm - N/A   Overcast
7:56 AM 63.0 °F 60.1 °F 90% 30.02 in 10.0 mi SSW 3.5 mph - N/A   Overcast
8:51 AM 64.4 °F 62.6 °F 94% 30.05 in 10.0 mi SW 4.6 mph - N/A   Overcast
8:56 AM 64.9 °F 62.1 °F 90% 30.04 in 10.0 mi WSW 5.8 mph - N/A   Overcast
9:39 AM 66.2 °F 62.6 °F 88% 30.07 in 10.0 mi WSW 10.4 mph - N/A   Overcast
9:56 AM 66.9 °F 62.1 °F 84% 30.06 in 10.0 mi SW 11.5 mph - N/A   Overcast
10:54 AM 68.0 °F 60.8 °F 78% 30.10 in 10.0 mi WSW 11.5 mph - N/A   Overcast
10:56 AM 68.0 °F 61.0 °F 78% 30.07 in 10.0 mi West 13.8 mph - N/A   Overcast
11:56 AM 70.0 °F 61.0 °F 73% 30.06 in 10.0 mi West 8.1 mph - N/A   Mostly Cloudy
12:56 PM 72.0 °F 59.0 °F 64% 30.06 in 10.0 mi West 12.7 mph - N/A   Partly Cloudy
1:56 PM 71.1 °F 59.0 °F 66% 30.06 in 10.0 mi West 11.5 mph - N/A   Overcast
2:56 PM 71.1 °F 57.9 °F 63% 30.07 in 10.0 mi WSW 8.1 mph - N/A   Mostly Cloudy
3:56 PM 71.1 °F 57.9 °F 63% 30.07 in 10.0 mi SW 11.5 mph - N/A   Mostly Cloudy
4:56 PM 70.0 °F 57.0 °F 63% 30.08 in 10.0 mi SW 10.4 mph - N/A   Mostly Cloudy
5:56 PM 69.1 °F 57.0 °F 65% 30.10 in 10.0 mi SW 6.9 mph - N/A   Scattered Clouds
6:56 PM 64.9 °F 57.9 °F 78% 30.11 in 10.0 mi SSW 3.5 mph - N/A   Clear
7:56 PM 64.0 °F 57.9 °F 80% 30.12 in 10.0 mi Calm Calm - N/A   Clear
8:56 PM 64.0 °F 57.9 °F 80% 30.12 in 10.0 mi SSW 3.5 mph - N/A   Clear
9:56 PM 63.0 °F 57.9 °F 84% 30.13 in 10.0 mi Calm Calm - N/A   Clear
10:56 PM 62.1 °F 57.9 °F 86% 30.14 in 10.0 mi Calm Calm - N/A   Clear
11:56 PM 62.1 °F 57.9 °F 86% 30.15 in 10.0 mi SSW 4.6 mph - N/A   Clear